Hourly Data Report for October 16, 2017

All times are specified in Local Standard Time (LST). Add 1 hour to adjust for Daylight Saving Time where and when it is observed.

WINNIPEG THE FORKS
MANITOBA

49°53'18.008" N
97°07'46.007" W
230.00 m
5023262
71579
XWN

Download Data

Hourly Data (October 2017)
Hourly Data Report for October 16, 2017
Temp Definition
°C
Dew Point Temp Definition
°C
Rel Hum Definition
%
Wind Dir Definition
10's deg

Wind Spd Definition
km/h
Visibility Definition
km
Stn Press Definition
kPa
Hmdx Definition


Wind Chill Definition


Weather Definition


TIME
00:00 4.6 -1.8 63 23 7   98.94     LegendNANA
01:00 3.9 -2.0 65 22 7   98.94     LegendNANA
02:00 2.9 -2.4 68 20 9   98.91     LegendNANA
03:00 2.6 -2.4 69 21 6   98.85     LegendNANA
04:00 2.7 -2.5 68 21 8   98.76     LegendNANA
05:00 2.3 -2.5 70 21 5   98.70     LegendNANA
06:00 2.6 -2.4 69 21 7   98.61     LegendNANA
07:00 3.6 -1.9 67 20 6   98.51     LegendNANA
08:00 4.1 -1.8 66 21 3   98.40     LegendNANA
09:00 4.7 -0.8 68 22 4   98.30     LegendNANA
10:00 8.3 0.0 56 19 6   98.21     LegendNANA
11:00 10.0 0.4 51 20 9   98.09     LegendNANA
12:00 13.4 1.2 43 22 13   98.05     LegendNANA
13:00 15.1 1.6 40 23 13   97.98     LegendNANA
14:00 16.2 2.4 39 24 9   97.95     LegendNANA
15:00 18.0 1.8 34 26 7   97.95     LegendNANA
16:00 18.5 1.3 32 26 8   97.97     LegendNANA
17:00 17.6 1.5 34 23 6   97.98     LegendNANA
18:00 16.6 2.0 37 23 7   98.02     LegendNANA
19:00 15.4 2.3 41 23 7   98.06     LegendNANA
20:00 14.4 2.2 43 23 6   98.10     LegendNANA
21:00 15.0 1.6 40 26 7   98.18     LegendNANA
22:00 13.3 1.5 45 27 7   98.25     LegendNANA
23:00 11.6 1.5 50 26 5   98.29     LegendNANA

Notes on Data Quality.

Legend

  • E = Estimated
  • M = Missing
  • NA = Not Available
  • ‡ = Partner data that is not subject to review by the National Climate Archives
Date modified: